UN113 RPLL-RPVA

Flight info

Callsign UN113
Flight time 0h 59m
Altitude 39000
Route IPATA2R IPATA B462 ARREX ARREX2R
Aircraft IL76/H-SDFGHIM1RTUWXY/LB1

Departure

Time 2026-04-17 13:31
Airport Ninoy Aquino International Airport (RPLL)

Arrival

Time 2026-04-17 14:30
Airport Daniel Z. Romualdez Airport (RPVA)
Time Latitude Longitude Altitude Speed Heading
2026-04-17 13:10 14.50576 121.00861 64 ft 0 kts 329°
2026-04-17 13:21 14.50555 121.00873 54 ft 4 kts 330°
2026-04-17 13:21 14.50541 121.00880 54 ft 5 kts 334°
2026-04-17 13:21 14.50508 121.00881 57 ft 0 kts 49°
2026-04-17 13:23 14.50521 121.00902 56 ft 8 kts 61°
2026-04-17 13:23 14.50557 121.00981 56 ft 13 kts 60°
2026-04-17 13:23 14.50603 121.01056 56 ft 8 kts 57°
2026-04-17 13:24 14.50611 121.01112 60 ft 11 kts 123°
2026-04-17 13:24 14.50598 121.01190 57 ft 14 kts 66°
2026-04-17 13:24 14.50647 121.01282 58 ft 17 kts 61°
2026-04-17 13:24 14.50709 121.01396 54 ft 18 kts 60°
2026-04-17 13:25 14.50786 121.01532 54 ft 25 kts 60°
2026-04-17 13:25 14.50873 121.01688 58 ft 25 kts 60°
2026-04-17 13:25 14.50957 121.01842 59 ft 26 kts 60°
2026-04-17 13:25 14.51041 121.01995 59 ft 22 kts 59°
2026-04-17 13:26 14.51112 121.02120 57 ft 18 kts 59°
2026-04-17 13:26 14.51171 121.02224 57 ft 15 kts 59°
2026-04-17 13:26 14.51217 121.02311 59 ft 13 kts 60°
2026-04-17 13:26 14.51258 121.02379 56 ft 10 kts 58°
2026-04-17 13:27 14.51291 121.02434 60 ft 8 kts 59°
2026-04-17 13:27 14.51316 121.02481 56 ft 9 kts 63°
2026-04-17 13:27 14.51359 121.02561 55 ft 16 kts 61°
2026-04-17 13:27 14.51420 121.02670 58 ft 18 kts 60°
2026-04-17 13:28 14.51473 121.02762 56 ft 11 kts 59°
2026-04-17 13:28 14.51492 121.02832 58 ft 12 kts 115°
2026-04-17 13:28 14.51479 121.02848 54 ft 0 kts 139°
2026-04-17 13:29 14.51450 121.02867 54 ft 10 kts 156°
2026-04-17 13:29 14.51365 121.02854 57 ft 14 kts 238°
2026-04-17 13:30 14.51355 121.02816 58 ft 7 kts 245°
2026-04-17 13:30 14.51335 121.02786 53 ft 9 kts 232°
2026-04-17 13:30 14.51310 121.02748 55 ft 0 kts 237°
2026-04-17 13:30 14.51292 121.02717 55 ft 30 kts 239°
2026-04-17 13:31 14.51025 121.02238 58 ft 121 kts 240°
2026-04-17 13:31 14.50236 121.00823 359 ft 208 kts 240°
2026-04-17 13:31 14.49458 120.99391 719 ft 238 kts 240°
2026-04-17 13:31 14.48636 120.97882 1031 ft 245 kts 240°
2026-04-17 13:32 14.47798 120.96342 1360 ft 247 kts 240°
2026-04-17 13:32 14.46976 120.94806 1729 ft 249 kts 240°
2026-04-17 13:32 14.46143 120.93229 2099 ft 250 kts 240°
2026-04-17 13:32 14.45294 120.91625 2462 ft 256 kts 240°
2026-04-17 13:33 14.44437 120.90010 2846 ft 258 kts 240°
2026-04-17 13:33 14.43570 120.88378 3233 ft 261 kts 240°
2026-04-17 13:33 14.42700 120.86738 3654 ft 261 kts 240°
2026-04-17 13:33 14.41812 120.85073 4207 ft 266 kts 240°
2026-04-17 13:34 14.40909 120.83388 4766 ft 271 kts 240°
2026-04-17 13:34 14.39983 120.81679 5324 ft 274 kts 240°
2026-04-17 13:34 14.39027 120.79941 5884 ft 276 kts 240°
2026-04-17 13:34 14.38070 120.78243 6432 ft 280 kts 236°
2026-04-17 13:35 14.36697 120.76827 6956 ft 282 kts 210°
2026-04-17 13:35 14.34842 120.76224 7490 ft 283 kts 181°
2026-04-17 13:35 14.32926 120.76592 8042 ft 282 kts 152°
2026-04-17 13:35 14.31418 120.77837 8618 ft 280 kts 124°
2026-04-17 13:36 14.30662 120.79658 9195 ft 279 kts 97°
2026-04-17 13:36 14.30547 120.81653 9811 ft 280 kts 91°
2026-04-17 13:36 14.30381 120.83667 10362 ft 284 kts 98°
2026-04-17 13:36 14.29911 120.85657 10920 ft 288 kts 109°
2026-04-17 13:37 14.29035 120.87565 11483 ft 293 kts 117°
2026-04-17 13:37 14.28023 120.89454 12102 ft 321 kts 116°
2026-04-17 13:37 14.27034 120.91640 12769 ft 348 kts 111°
2026-04-17 13:37 14.26083 120.93988 13604 ft 367 kts 112°
2026-04-17 13:38 14.25001 120.96408 14415 ft 376 kts 115°
2026-04-17 13:38 14.23814 120.98879 15218 ft 382 kts 114°
2026-04-17 13:38 14.22691 121.01373 16025 ft 387 kts 112°
2026-04-17 13:38 14.21612 121.03898 16834 ft 392 kts 112°
2026-04-17 13:39 14.20454 121.06466 17661 ft 398 kts 114°
2026-04-17 13:39 14.19249 121.09056 18467 ft 403 kts 114°
2026-04-17 13:39 14.18065 121.11690 19183 ft 407 kts 113°
2026-04-17 13:39 14.16895 121.14355 19909 ft 410 kts 114°
2026-04-17 13:40 14.15682 121.17034 20656 ft 414 kts 114°
2026-04-17 13:40 14.14450 121.19727 21411 ft 418 kts 114°
2026-04-17 13:40 14.13223 121.22456 22172 ft 421 kts 114°
2026-04-17 13:40 14.11998 121.25208 22958 ft 426 kts 114°
2026-04-17 13:41 14.10745 121.27987 23713 ft 430 kts 115°
2026-04-17 13:41 14.09465 121.30793 24379 ft 435 kts 115°
2026-04-17 13:41 14.08183 121.33635 25054 ft 440 kts 114°
2026-04-17 13:41 14.06895 121.36515 25740 ft 445 kts 114°
2026-04-17 13:42 14.05580 121.39429 26448 ft 450 kts 115°
2026-04-17 13:42 14.04245 121.42364 27174 ft 456 kts 115°
2026-04-17 13:42 14.02899 121.45336 27900 ft 461 kts 115°
2026-04-17 13:42 14.01539 121.48357 28668 ft 468 kts 115°
2026-04-17 13:43 14.00157 121.51416 29442 ft 474 kts 115°
2026-04-17 13:43 13.98749 121.54514 30206 ft 481 kts 115°
2026-04-17 13:43 13.97811 121.56579 30654 ft 483 kts 115°
2026-04-17 13:43 13.96388 121.59733 31329 ft 488 kts 115°
2026-04-17 13:44 13.94466 121.63984 32282 ft 491 kts 115°
2026-04-17 13:44 13.93157 121.66863 32927 ft 491 kts 115°
2026-04-17 13:44 13.92200 121.68973 33404 ft 491 kts 115°
2026-04-17 13:44 13.90756 121.72159 34118 ft 489 kts 115°
2026-04-17 13:45 13.89326 121.75321 34745 ft 487 kts 116°
2026-04-17 13:45 13.86991 121.79279 35610 ft 481 kts 128°
2026-04-17 13:45 13.84831 121.81887 36266 ft 478 kts 132°
2026-04-17 13:45 13.82575 121.84381 36930 ft 474 kts 133°
2026-04-17 13:46 13.81118 121.86045 37370 ft 472 kts 131°
2026-04-17 13:46 13.79081 121.88678 38058 ft 468 kts 127°
2026-04-17 13:46 13.76467 121.92170 38780 ft 466 kts 130°
2026-04-17 13:46 13.75044 121.93881 38924 ft 470 kts 131°
2026-04-17 13:47 13.70727 121.99078 38932 ft 481 kts 128°
2026-04-17 13:47 13.66538 122.04431 38932 ft 481 kts 131°
2026-04-17 13:48 13.62208 122.09674 38947 ft 481 kts 129°
2026-04-17 13:48 13.57997 122.15012 38948 ft 481 kts 130°
2026-04-17 13:49 13.53685 122.20264 38945 ft 480 kts 129°
2026-04-17 13:49 13.49459 122.25580 38946 ft 481 kts 130°
2026-04-17 13:50 13.45156 122.30845 38933 ft 481 kts 129°
2026-04-17 13:50 13.40911 122.36151 38951 ft 481 kts 130°
2026-04-17 13:51 13.36617 122.41418 38947 ft 480 kts 129°
2026-04-17 13:51 13.32365 122.46715 38950 ft 481 kts 130°
2026-04-17 13:52 13.28072 122.51981 38941 ft 481 kts 129°
2026-04-17 13:52 13.23811 122.57277 38944 ft 481 kts 130°
2026-04-17 13:53 13.19512 122.62549 38950 ft 482 kts 129°
2026-04-17 13:53 13.15241 122.67845 38947 ft 482 kts 130°
2026-04-17 13:54 13.08841 122.75729 38941 ft 481 kts 129°
2026-04-17 13:55 13.02383 122.83662 38944 ft 481 kts 129°
2026-04-17 13:56 12.93845 122.94166 38947 ft 481 kts 129°
2026-04-17 13:56 12.89560 122.99439 38938 ft 482 kts 130°
2026-04-17 13:57 12.85266 123.04705 38942 ft 481 kts 129°
2026-04-17 13:58 12.78825 123.12606 38945 ft 482 kts 130°
2026-04-17 13:58 12.72391 123.20502 38936 ft 481 kts 130°
2026-04-17 13:59 12.65960 123.28385 38941 ft 481 kts 130°
2026-04-17 14:00 12.61665 123.33633 38952 ft 481 kts 130°
2026-04-17 14:00 12.57372 123.38892 38946 ft 481 kts 130°
2026-04-17 14:01 12.53079 123.44139 38947 ft 481 kts 130°
2026-04-17 14:01 12.48782 123.49390 38946 ft 481 kts 129°
2026-04-17 14:02 12.44485 123.54639 38953 ft 481 kts 129°
2026-04-17 14:02 12.40183 123.59888 38952 ft 481 kts 130°
2026-04-17 14:03 12.35889 123.65132 38794 ft 483 kts 130°
2026-04-17 14:03 12.33735 123.67756 38210 ft 481 kts 130°
2026-04-17 14:03 12.31594 123.70362 37447 ft 473 kts 130°
2026-04-17 14:03 12.29499 123.72916 36685 ft 465 kts 130°
2026-04-17 14:04 12.27436 123.75431 35950 ft 458 kts 130°
2026-04-17 14:04 12.25403 123.77910 35234 ft 452 kts 130°
2026-04-17 14:04 12.23397 123.80355 34549 ft 446 kts 130°
2026-04-17 14:04 12.21419 123.82760 33866 ft 440 kts 130°
2026-04-17 14:05 12.19461 123.85144 33084 ft 433 kts 130°
2026-04-17 14:05 12.17534 123.87488 32331 ft 427 kts 130°
2026-04-17 14:05 12.13594 123.92285 30842 ft 414 kts 130°
2026-04-17 14:06 12.11754 123.94522 30173 ft 408 kts 130°
2026-04-17 14:06 12.09933 123.96727 29390 ft 403 kts 130°
2026-04-17 14:06 12.08147 123.98903 28613 ft 397 kts 130°
2026-04-17 14:06 12.06389 124.01046 27845 ft 391 kts 130°
2026-04-17 14:07 12.04693 124.03098 27141 ft 385 kts 130°
2026-04-17 14:07 12.02982 124.05173 26412 ft 380 kts 130°
2026-04-17 14:07 12.01299 124.07224 25708 ft 375 kts 129°
2026-04-17 14:07 11.99625 124.09253 25030 ft 370 kts 130°
2026-04-17 14:08 11.97980 124.11248 24352 ft 365 kts 129°
2026-04-17 14:08 11.96360 124.13217 23699 ft 360 kts 129°
2026-04-17 14:08 11.94753 124.15166 22951 ft 357 kts 129°
2026-04-17 14:08 11.93164 124.17091 22190 ft 353 kts 129°
2026-04-17 14:09 11.91594 124.18999 21460 ft 349 kts 129°
2026-04-17 14:09 11.90035 124.20893 20733 ft 346 kts 129°
2026-04-17 14:09 11.88490 124.22761 20038 ft 343 kts 129°
2026-04-17 14:09 11.86975 124.24597 19555 ft 333 kts 129°
2026-04-17 14:10 11.85506 124.26379 19130 ft 324 kts 129°
2026-04-17 14:10 11.84067 124.28142 18703 ft 322 kts 128°
2026-04-17 14:10 11.82646 124.29907 18284 ft 321 kts 128°
2026-04-17 14:10 11.81220 124.31653 17825 ft 319 kts 128°
2026-04-17 14:11 11.79798 124.33387 17337 ft 317 kts 128°
2026-04-17 14:11 11.78397 124.35112 16895 ft 315 kts 128°
2026-04-17 14:11 11.77000 124.36831 16445 ft 313 kts 128°
2026-04-17 14:11 11.75629 124.38505 16018 ft 311 kts 128°
2026-04-17 14:12 11.74231 124.40222 15675 ft 310 kts 128°
2026-04-17 14:12 11.72858 124.41911 15370 ft 308 kts 128°
2026-04-17 14:12 11.71485 124.43587 15055 ft 307 kts 128°
2026-04-17 14:13 11.68760 124.46929 14462 ft 305 kts 128°
2026-04-17 14:13 11.67402 124.48591 14158 ft 305 kts 128°
2026-04-17 14:13 11.66070 124.50227 13867 ft 304 kts 128°
2026-04-17 14:13 11.64703 124.51901 13555 ft 302 kts 128°
2026-04-17 14:14 11.63359 124.53542 13223 ft 300 kts 128°
2026-04-17 14:14 11.62031 124.55168 12903 ft 298 kts 128°
2026-04-17 14:14 11.60725 124.56771 12583 ft 296 kts 128°
2026-04-17 14:14 11.59839 124.57857 12372 ft 294 kts 129°
2026-04-17 14:15 11.58108 124.59969 11949 ft 292 kts 129°
2026-04-17 14:15 11.56812 124.61558 11642 ft 290 kts 128°
2026-04-17 14:15 11.55521 124.63138 11334 ft 289 kts 129°
2026-04-17 14:15 11.54239 124.64701 11031 ft 287 kts 129°
2026-04-17 14:16 11.52968 124.66257 10738 ft 285 kts 129°
2026-04-17 14:16 11.51703 124.67810 10435 ft 283 kts 129°
2026-04-17 14:16 11.50441 124.69347 10132 ft 282 kts 130°
2026-04-17 14:16 11.49017 124.70711 9830 ft 281 kts 143°
2026-04-17 14:17 11.47369 124.71785 9512 ft 281 kts 148°
2026-04-17 14:17 11.45714 124.72836 9189 ft 280 kts 145°
2026-04-17 14:17 11.44641 124.73604 8977 ft 279 kts 143°
2026-04-17 14:17 11.42548 124.75126 8614 ft 278 kts 145°
2026-04-17 14:18 11.40941 124.76206 8372 ft 277 kts 146°
2026-04-17 14:18 11.39853 124.76943 8203 ft 277 kts 145°
2026-04-17 14:18 11.38273 124.78056 7966 ft 276 kts 144°
2026-04-17 14:18 11.36715 124.79148 7736 ft 276 kts 145°
2026-04-17 14:19 11.35101 124.80251 7494 ft 275 kts 145°
2026-04-17 14:19 11.33547 124.81330 7250 ft 274 kts 144°
2026-04-17 14:19 11.31981 124.82427 7014 ft 273 kts 145°
2026-04-17 14:19 11.30413 124.83510 6721 ft 272 kts 145°
2026-04-17 14:20 11.28847 124.84589 6414 ft 271 kts 145°
2026-04-17 14:20 11.27294 124.85665 6098 ft 270 kts 145°
2026-04-17 14:20 11.25642 124.86559 5764 ft 270 kts 162°
2026-04-17 14:20 11.23804 124.86949 5463 ft 270 kts 172°
2026-04-17 14:21 11.21953 124.87228 5147 ft 269 kts 169°
2026-04-17 14:21 11.20133 124.87662 4863 ft 268 kts 165°
2026-04-17 14:21 11.18330 124.88127 4571 ft 263 kts 167°
2026-04-17 14:21 11.16569 124.88498 4256 ft 256 kts 169°
2026-04-17 14:22 11.14833 124.88858 3983 ft 253 kts 167°
2026-04-17 14:22 11.13125 124.89250 3714 ft 251 kts 167°
2026-04-17 14:22 11.11424 124.89632 3456 ft 250 kts 167°
2026-04-17 14:22 11.09724 124.90008 3208 ft 250 kts 167°
2026-04-17 14:23 11.08037 124.90386 2956 ft 246 kts 167°
2026-04-17 14:23 11.06407 124.90744 2709 ft 230 kts 167°
2026-04-17 14:23 11.04922 124.91208 2505 ft 216 kts 151°
2026-04-17 14:23 11.03882 124.92263 2454 ft 211 kts 115°
2026-04-17 14:24 11.03613 124.93705 2458 ft 207 kts 88°
2026-04-17 14:24 11.03647 124.95156 2408 ft 202 kts 91°
2026-04-17 14:24 11.03513 124.96508 2246 ft 185 kts 97°
2026-04-17 14:24 11.03377 124.97793 2026 ft 178 kts 92°
2026-04-17 14:25 11.03326 124.99035 1863 ft 175 kts 92°
2026-04-17 14:25 11.03279 125.00233 1720 ft 165 kts 83°
2026-04-17 14:25 11.03766 125.01253 1534 ft 163 kts 40°
2026-04-17 14:25 11.04810 125.01632 1411 ft 162 kts
2026-04-17 14:26 11.05920 125.01596 1514 ft 151 kts
2026-04-17 14:26 11.06933 125.01707 1558 ft 146 kts
2026-04-17 14:26 11.07937 125.01796 1599 ft 142 kts
2026-04-17 14:26 11.08931 125.01837 1593 ft 142 kts
2026-04-17 14:27 11.09918 125.01913 1630 ft 144 kts
2026-04-17 14:27 11.10902 125.01969 1619 ft 140 kts
2026-04-17 14:27 11.11870 125.02033 1613 ft 139 kts
2026-04-17 14:27 11.12829 125.02112 1621 ft 136 kts
2026-04-17 14:28 11.13785 125.02143 1565 ft 138 kts
2026-04-17 14:28 11.14761 125.02133 1480 ft 141 kts
2026-04-17 14:28 11.15743 125.02163 1402 ft 142 kts
2026-04-17 14:28 11.16724 125.02231 1268 ft 139 kts
2026-04-17 14:29 11.17684 125.02334 1081 ft 138 kts
2026-04-17 14:29 11.18306 125.02421 971 ft 136 kts
2026-04-17 14:29 11.18946 125.02495 825 ft 138 kts
2026-04-17 14:29 11.20571 125.02645 421 ft 140 kts
2026-04-17 14:30 11.21534 125.02690 137 ft 136 kts
2026-04-17 14:30 11.22432 125.02751 18 ft 121 kts
2026-04-17 14:30 11.23080 125.02803 10 ft 48 kts
2026-04-17 14:30 11.23251 125.02820 8 ft 19 kts 11°
2026-04-17 14:31 11.23385 125.02827 9 ft 18 kts 358°
2026-04-17 14:31 11.23500 125.02823 14 ft 18 kts
2026-04-17 14:31 11.23620 125.02829 15 ft 13 kts 348°
2026-04-17 14:31 11.23699 125.02804 14 ft 11 kts 15°
2026-04-17 14:32 11.23696 125.02839 13 ft 7 kts 187°
2026-04-17 14:32 11.23640 125.02832 14 ft 10 kts 185°
2026-04-17 14:32 11.23545 125.02823 14 ft 18 kts 185°
2026-04-17 14:32 11.23393 125.02808 8 ft 26 kts 185°
2026-04-17 14:33 11.23195 125.02796 12 ft 26 kts 180°
2026-04-17 14:33 11.23010 125.02788 9 ft 30 kts 182°
2026-04-17 14:33 11.22901 125.02783 9 ft 16 kts 183°
2026-04-17 14:33 11.22778 125.02760 12 ft 11 kts 225°
2026-04-17 14:34 11.22750 125.02714 10 ft 10 kts 240°
2026-04-17 14:34 11.22713 125.02688 11 ft 2 kts 250°
2026-04-17 14:34 11.22718 125.02672 10 ft 5 kts 305°
2026-04-17 14:34 11.22726 125.02661 12 ft 4 kts 309°